{"data":{"norad_id":64202,"intl_designator":"2025-116A","name":"GPS BIII-8  (PRN 21)","alt_names":[],"object_type":"PAYLOAD","status":"ACTIVE","operator":null,"country":"US","launch_date":"2025-05-30","launch_site_code":"AFETR","launch_vehicle":null,"mission":null,"orbit_class":"UNKNOWN","rcs_meters":null,"size_class":null,"mass_kg":null,"dimensions":null,"purposes":["nav"],"wikipedia_slug":null,"has_3d_model":false,"image_url":null,"decayed_at":null,"tle_current":{"epoch":"2026-05-24T09:49:13.937376Z","epoch_age_seconds":119991,"freshness":"FRESH","line1":"1 64202U 25116A   26144.40918909 -.00000106  00000+0  00000+0 0  9992","line2":"2 64202  55.2184  32.0868 0008588 335.9862 205.8678  2.00577579  7390","mean_motion":2.00577579,"eccentricity":0.0008588,"inclination_deg":55.2184,"raan_deg":32.0868,"arg_perigee_deg":335.9862,"mean_anomaly_deg":205.8678,"bstar":0,"rev_number":739,"period_min":717.92670306386,"perigee_km":20158.168129314,"apogee_km":20203.786063686,"semimajor_km":26559.1140965,"source":"CELESTRAK","updated_at":"2026-05-25T13:38:23.769018Z"}}}